CW0621 Weather Reports


Display with metric or nautical units.
time (UTC)temp
F
wind
direction
speed
MPH
gust
MPH
rain 1hr
in
rain 24hr
in
rain mn
in
humidity
%
barometer
mb
20260504214522 74 185 1.0 7.0 0.00 0.00 0.00 49 999.6
20260504213051 73 105 0.0 6.0 0.00 0.00 0.00 50 999.8
20260504211517 73 221 0.0 1.0 0.00 0.00 0.00 51 999.9
20260504210049 75 269 0.0 6.0 0.00 0.00 0.00 49 1000.3
20260504204513 76 159 0.0 5.0 0.00 0.00 0.00 47 1000.3
20260504203038 75 209 0.0 6.0 0.00 0.00 0.00 48 1000.8
20260504201504 74 113 0.0 6.0 0.00 0.00 0.00 49 1001.1
20260504200034 75 249 0.0 7.0 0.00 0.00 0.00 48 1001.2
20260504194604 75 49 0.0 8.0 0.00 0.00 0.00 49 1001.5
20260504193020 75 288 0.0 3.0 0.00 0.00 0.00 48 1001.8
20260504191610 75 217 0.0 6.0 0.00 0.00 0.00 49 1001.7
20260504190018 75 138 0.0 7.0 0.00 0.00 0.00 49 1001.9
20260504184553 75 265 0.0 4.0 0.00 0.00 0.00 47 1002.2
20260504183008 75 4 0.0 4.0 0.00 0.00 0.00 46 1002.3
20260504181536 74 53 0.0 5.0 0.00 0.00 0.00 44 1002.4
20260504180002 75 88 0.0 5.0 0.00 0.00 0.00 44 1002.5
20260504174528 75 167 0.0 2.0 0.00 0.00 0.00 39 1002.8
20260504173056 74 45 0.0 4.0 0.00 0.00 0.00 42 1003.1
20260504171522 74 259 0.0 5.0 0.00 0.00 0.00 36 1003.5
20260504150103 65 85 0.0 0.0 0.00 0.00 0.00 58 1005.1
20260504081600 46 255 0.0 0.0 0.00 0.00 0.00 84 1006.3
20260504044525 45 226 0.0 0.0 0.00 0.00 0.00 84 1009.0
20260504043103 46 259 0.0 0.0 0.00 0.00 0.00 83 1009.0
20260504041522 45 136 0.0 0.0 0.00 0.00 0.00 83 1009.1
20260504040050 45 195 0.0 0.0 0.00 0.00 0.00 84 1009.0
20260504034518 45 244 0.0 0.0 0.00 0.00 0.00 83 1009.3
20260504033054 45 275 0.0 0.0 0.00 0.00 0.00 83 1009.4
20260504031510 45 152 0.0 0.0 0.00 0.00 0.00 82 1009.6
20260504030101 45 203 0.0 0.0 0.00 0.00 0.00 81 1009.7
20260504024514 46 258 0.0 0.0 0.00 0.00 0.00 81 1009.7
20260504023042 46 219 0.0 0.0 0.00 0.00 0.00 80 1009.8
20260504021513 46 255 0.0 0.0 0.00 0.00 0.00 80 1009.9
20260504020044 46 213 0.0 0.0 0.00 0.00 0.00 79 1010.0
20260504014510 47 266 0.0 0.0 0.00 0.00 0.00 79 1010.1
20260504013041 47 258 0.0 0.0 0.00 0.00 0.00 78 1010.0
20260504011510 47 168 0.0 0.0 0.00 0.00 0.00 77 1010.1
20260504010040 48 226 0.0 0.0 0.00 0.00 0.00 76 1010.0
20260504004507 48 240 0.0 0.0 0.00 0.00 0.00 74 1010.1
20260504003041 49 143 0.0 0.0 0.00 0.00 0.00 73 1010.2
20260504001501 50 273 0.0 0.0 0.00 0.00 0.00 73 1010.2
20260504000028 50 150 0.0 0.0 0.00 0.00 0.00 72 1010.4
20260503234538 50 205 0.0 0.0 0.00 0.00 0.00 72 1010.6
20260503233018 50 89 0.0 0.0 0.00 0.00 0.00 73 1010.7
20260503231556 50 132 0.0 0.0 0.00 0.00 0.00 73 1010.9
20260503230040 50 261 0.0 0.0 0.00 0.00 0.00 72 1011.1
20260503224525 50 161 0.0 0.0 0.00 0.00 0.00 70 1011.3
20260503223050 51 266 0.0 0.0 0.00 0.00 0.00 69 1011.6
20260503221535 51 334 0.0 0.0 0.00 0.00 0.00 67 1011.9
20260503220022 52 66 0.0 0.0 0.00 0.00 0.00 68 1011.9